,,Stat6,,Stat2,,Stat8,,Stat9,,Stat10,,Wind1,,Wind1,
time,status,PA1M_AVG,status,PR1M_SUM,status,RH1M_AVG,status,SR1M_AVG,status,TA1M_AVG,status,W1dAve1m,status,W1sAve1m,
2005-08-15, 00:00:00,VALID,917.666,VALID,0,VALID,91.9345,VALID,-0.0679233,VALID,20.7348,VALID,153,VALID,0.714472,
2005-08-15, 00:01:00,VALID,917.645,VALID,0,VALID,92.068,VALID,-0.0679233,VALID,20.7125,VALID,179,VALID,1.12773,
2005-08-15, 00:02:00,VALID,917.639,VALID,0,VALID,91.7081,VALID,-0.0679233,VALID,20.7149,VALID,129,VALID,1.66076,
2005-08-15, 00:03:00,VALID,917.641,VALID,0,VALID,91.422,VALID,-0.0339617,VALID,20.7636,VALID,87,VALID,0.53468,
2005-08-15, 00:04:00,VALID,917.636,VALID,0,VALID,91.2859,VALID,-0.0679233,VALID,20.8153,VALID,99,VALID,0.476563,
2005-08-15, 00:05:00,VALID,917.633,VALID,0,VALID,91.3661,VALID,-0.0339617,VALID,20.8054,VALID,157,VALID,0.780878,
2005-08-15, 00:06:00,VALID,917.617,VALID,0,VALID,91.67,VALID,-0.0509425,VALID,20.7674,VALID,166,VALID,1.24963,
2005-08-15, 00:07:00,VALID,917.611,VALID,0,VALID,91.6852,VALID,-0.0679233,VALID,20.7478,VALID,165,VALID,0.806463,
2005-08-15, 00:08:00,VALID,917.605,VALID,0,VALID,91.9561,VALID,-0.0679233,VALID,20.7087,VALID,173,VALID,1.11607,
2005-08-15, 00:09:00,VALID,917.607,VALID,0,VALID,92.115,VALID,-0.0509425,VALID,20.6928,VALID,158,VALID,1.15734,
2005-08-15, 00:10:00,VALID,917.604,VALID,0,VALID,92.3172,VALID,-0.0509425,VALID,20.6533,VALID,161,VALID,0.991987,
2005-08-15, 00:11:00,VALID,917.588,VALID,0,VALID,92.1977,VALID,-0.0679233,VALID,20.6449,VALID,156,VALID,1.57719,
2005-08-15, 00:12:00,VALID,917.583,VALID,0,VALID,91.7908,VALID,-0.0509425,VALID,20.6893,VALID,164,VALID,0.918445,
2005-08-15, 00:13:00,VALID,917.58,VALID,0,VALID,91.7768,VALID,-0.0849042,VALID,20.7085,VALID,178,VALID,0.981831,
2005-08-15, 00:14:00,VALID,917.589,VALID,0,VALID,91.8747,VALID,-0.0339617,VALID,20.6891,VALID,172,VALID,1.01277,
2005-08-15, 00:15:00,VALID,917.568,VALID,0,VALID,91.9726,VALID,-0.0169808,VALID,20.6665,VALID,159,VALID,0.437119,
2005-08-15, 00:16:00,VALID,917.576,VALID,0,VALID,91.8467,VALID,-0.0169808,VALID,20.6245,VALID,153,VALID,1.60828,
2005-08-15, 00:17:00,VALID,917.566,VALID,0,VALID,92.0756,VALID,-0.0169808,VALID,20.6113,VALID,148,VALID,1.44959,
2005-08-15, 00:18:00,VALID,917.573,VALID,0,VALID,92.068,VALID,0,VALID,20.6145,VALID,162,VALID,0.776389,
2005-08-15, 00:19:00,VALID,917.574,VALID,0,VALID,92.1799,VALID,-0.0339617,VALID,20.6212,VALID,149,VALID,0.640625,
2005-08-15, 00:20:00,VALID,917.595,VALID,0,VALID,92.2498,VALID,-0.0509425,VALID,20.5981,VALID,150,VALID,0.628018,
2005-08-15, 00:21:00,VALID,917.603,VALID,0,VALID,92.1405,VALID,-0.0509425,VALID,20.6148,VALID,141,VALID,0.72619,
2005-08-15, 00:22:00,VALID,917.605,VALID,0,VALID,92.0171,VALID,-0.0169808,VALID,20.6178,VALID,163,VALID,0.706143,
2005-08-15, 00:23:00,VALID,917.619,VALID,0,VALID,91.9586,VALID,-0.0509425,VALID,20.621,VALID,122,VALID,1.04506,
2005-08-15, 00:24:00,VALID,917.603,VALID,0,VALID,91.7056,VALID,0,VALID,20.6734,VALID,129,VALID,0.869186,
2005-08-15, 00:25:00,VALID,917.598,VALID,0,VALID,91.478,VALID,-0.0339617,VALID,20.6988,VALID,127,VALID,0.591087,
2005-08-15, 00:26:00,VALID,917.606,VALID,0,VALID,91.291,VALID,0,VALID,20.7087,VALID,166,VALID,0.863782,
2005-08-15, 00:27:00,VALID,917.594,VALID,0,VALID,91.1105,VALID,-0.0509425,VALID,20.7502,VALID,154,VALID,0.742535,
2005-08-15, 00:28:00,VALID,917.605,VALID,0,VALID,91.0939,VALID,-0.0169808,VALID,20.7601,VALID,171,VALID,0.750545,
2005-08-15, 00:29:00,VALID,917.611,VALID,0,VALID,91.0621,VALID,-0.0509425,VALID,20.7448,VALID,94,VALID,1.0148,
2005-08-15, 00:30:00,VALID,917.617,VALID,0,VALID,91.1537,VALID,-0.0169808,VALID,20.7313,VALID,119,VALID,0.587941,
2005-08-15, 00:31:00,VALID,917.618,VALID,0,VALID,91.0545,VALID,-0.0509425,VALID,20.7219,VALID,162,VALID,1.04074,
2005-08-15, 00:32:00,VALID,917.62,VALID,0,VALID,91.1461,VALID,-0.0679233,VALID,20.6896,VALID,153,VALID,0.86756,
2005-08-15, 00:33:00,VALID,917.611,VALID,0,VALID,91.1283,VALID,-0.0679233,VALID,20.6961,VALID,153,VALID,0.774639,
2005-08-15, 00:34:00,VALID,917.61,VALID,0,VALID,91.0736,VALID,-0.0679233,VALID,20.699,VALID,153,VALID,0.73559,
2005-08-15, 00:35:00,VALID,917.603,VALID,0,VALID,90.7722,VALID,-0.0679233,VALID,20.7257,VALID,171,VALID,0.690739,
2005-08-15, 00:36:00,VALID,917.59,VALID,0,VALID,90.6743,VALID,-0.0169808,VALID,20.7281,VALID,187,VALID,0.646205,
2005-08-15, 00:37:00,VALID,917.574,VALID,0,VALID,90.7557,VALID,-0.0169808,VALID,20.6993,VALID,149,VALID,0.451823,
2005-08-15, 00:38:00,VALID,917.557,VALID,0,VALID,90.865,VALID,-0.0509425,VALID,20.6635,VALID,118,VALID,0.312863,
2005-08-15, 00:39:00,VALID,917.539,VALID,0,VALID,91.0965,VALID,-0.0169808,VALID,20.6212,VALID,140,VALID,0.322674,
2005-08-15, 00:40:00,VALID,917.519,VALID,0,VALID,91.4347,VALID,-0.0339617,VALID,20.5862,VALID,175,VALID,0.196094,
2005-08-15, 00:41:00,VALID,917.499,VALID,0,VALID,91.8429,VALID,-0.0849042,VALID,20.5345,VALID,195,VALID,0.510938,
2005-08-15, 00:42:00,VALID,917.497,VALID,0,VALID,91.9523,VALID,-0.0509425,VALID,20.5413,VALID,193,VALID,0.574728,
2005-08-15, 00:43:00,VALID,917.503,VALID,0,VALID,91.8836,VALID,-0.0679233,VALID,20.5062,VALID,186,VALID,0.12157,
2005-08-15, 00:44:00,VALID,917.485,VALID,0,VALID,91.8493,VALID,0.0509425,VALID,20.4493,VALID,186,VALID,0.145833,
2005-08-15, 00:45:00,VALID,917.477,VALID,0,VALID,92.2702,VALID,0.0509425,VALID,20.378,VALID,186,VALID,0.094308,
2005-08-15, 00:46:00,VALID,917.479,VALID,0,VALID,92.6237,VALID,0.0339617,VALID,20.3104,VALID,186,VALID,0.0261628,
2005-08-15, 00:47:00,VALID,917.483,VALID,0,VALID,92.8729,VALID,0.0679233,VALID,20.2587,VALID,186,VALID,0.0602679,
2005-08-15, 00:48:00,VALID,917.492,VALID,0,VALID,92.5283,VALID,0.0849042,VALID,20.2199,VALID,186,VALID,0.09375,
2005-08-15, 00:49:00,VALID,917.478,VALID,0,VALID,92.7012,VALID,0.0509425,VALID,20.133,VALID,186,VALID,0.278525,
2005-08-15, 00:50:00,VALID,917.477,VALID,0,VALID,93.7579,VALID,0.0509425,VALID,20.1173,VALID,189,VALID,0.387649,
2005-08-15, 00:51:00,VALID,917.49,VALID,0,VALID,94.0606,VALID,0.0339617,VALID,20.1074,VALID,212,VALID,0.159339,
2005-08-15, 00:52:00,VALID,917.494,VALID,0,VALID,94.1076,VALID,0.0169808,VALID,20.0614,VALID,212,VALID,0,
2005-08-15, 00:53:00,VALID,917.487,VALID,0,VALID,94.3035,VALID,0.0339617,VALID,20.0364,VALID,212,VALID,0.333507,
2005-08-15, 00:54:00,VALID,917.474,VALID,0,VALID,94.6913,VALID,0.0679233,VALID,20.0301,VALID,224,VALID,0.409784,
2005-08-15, 00:55:00,VALID,917.474,VALID,0,VALID,94.8426,VALID,0.0679233,VALID,20.0194,VALID,243,VALID,0.0472756,
2005-08-15, 00:56:00,VALID,917.491,VALID,0,VALID,94.7549,VALID,0.0339617,VALID,20.0167,VALID,233,VALID,0.18423,
2005-08-15, 00:57:00,VALID,917.489,VALID,0,VALID,94.6646,VALID,0.0509425,VALID,19.978,VALID,202,VALID,0.529948,
2005-08-15, 00:58:00,VALID,917.492,VALID,0,VALID,94.8884,VALID,0.0679233,VALID,19.9715,VALID,223,VALID,0.528646,
2005-08-15, 00:59:00,VALID,917.497,VALID,0,VALID,94.9316,VALID,-0.0339617,VALID,19.979,VALID,230,VALID,0.540396,
2005-08-15, 01:00:00,VALID,917.495,VALID,0,VALID,94.8134,VALID,-0.0169808,VALID,19.9989,VALID,218,VALID,0.474657,
2005-08-15, 01:01:00,VALID,917.501,VALID,0,VALID,94.6303,VALID,-0.0339617,VALID,19.9954,VALID,208,VALID,0.107422,
2005-08-15, 01:02:00,VALID,917.503,VALID,0,VALID,94.4904,VALID,-0.0339617,VALID,19.9593,VALID,219,VALID,0.330128,
2005-08-15, 01:03:00,VALID,917.513,VALID,0,VALID,94.3798,VALID,-0.0679233,VALID,19.9243,VALID,219,VALID,0.0159884,
2005-08-15, 01:04:00,VALID,917.524,VALID,0,VALID,94.6519,VALID,-0.0339617,VALID,19.8985,VALID,219,VALID,0.224826,
2005-08-15, 01:05:00,VALID,917.515,VALID,0,VALID,95.1542,VALID,0,VALID,19.8828,VALID,233,VALID,0.483631,
2005-08-15, 01:06:00,VALID,917.528,VALID,0,VALID,95.5128,VALID,0,VALID,19.9278,VALID,239,VALID,0.78125,
2005-08-15, 01:07:00,VALID,917.528,VALID,0,VALID,95.1974,VALID,-0.0339617,VALID,19.9695,VALID,230,VALID,0.4133,
2005-08-15, 01:08:00,VALID,917.518,VALID,0,VALID,94.8871,VALID,-0.0509425,VALID,19.97,VALID,219,VALID,0.451451,
2005-08-15, 01:09:00,VALID,917.515,VALID,0,VALID,95.1249,VALID,-0.0339617,VALID,19.9539,VALID,222,VALID,0.737351,
2005-08-15, 01:10:00,VALID,917.512,VALID,0,VALID,95.1275,VALID,-0.0679233,VALID,19.9509,VALID,218,VALID,0.681818,
2005-08-15, 01:11:00,VALID,917.518,VALID,0,VALID,94.8375,VALID,-0.0679233,VALID,19.928,VALID,204,VALID,0.370192,
2005-08-15, 01:12:00,VALID,917.505,VALID,0,VALID,94.9761,VALID,-0.0509425,VALID,19.8764,VALID,202,VALID,0.847842,
2005-08-15, 01:13:00,VALID,917.487,VALID,0,VALID,95.2419,VALID,-0.0509425,VALID,19.8702,VALID,222,VALID,0.603659,
2005-08-15, 01:14:00,VALID,917.482,VALID,0,VALID,95.4835,VALID,0,VALID,19.8821,VALID,229,VALID,0.936756,
2005-08-15, 01:15:00,VALID,917.466,VALID,0,VALID,95.4021,VALID,0.0339617,VALID,19.9429,VALID,228,VALID,0.792302,
2005-08-15, 01:16:00,VALID,917.457,VALID,0,VALID,95.1415,VALID,0.0169808,VALID,19.9951,VALID,227,VALID,0.663336,
2005-08-15, 01:17:00,VALID,917.448,VALID,0,VALID,94.9418,VALID,0,VALID,20.0113,VALID,216,VALID,0.602307,
2005-08-15, 01:18:00,VALID,917.431,VALID,0,VALID,94.8948,VALID,0,VALID,20.0212,VALID,234,VALID,0.486919,
2005-08-15, 01:19:00,VALID,917.425,VALID,0,VALID,94.6506,VALID,0.0169808,VALID,20.0207,VALID,233,VALID,0.272204,
2005-08-15, 01:20:00,VALID,917.413,VALID,0,VALID,94.54,VALID,0,VALID,20.011,VALID,230,VALID,0.191502,
2005-08-15, 01:21:00,VALID,917.417,VALID,0,VALID,94.4751,VALID,0.0169808,VALID,19.9984,VALID,230,VALID,0.00400641,
2005-08-15, 01:22:00,VALID,917.389,VALID,0,VALID,94.2831,VALID,0.0169808,VALID,19.9529,VALID,230,VALID,0,
2005-08-15, 01:23:00,VALID,917.384,VALID,0,VALID,94.5273,VALID,0,VALID,19.9074,VALID,230,VALID,0.0259811,
2005-08-15, 01:24:00,VALID,917.383,VALID,0,VALID,94.8693,VALID,0,VALID,19.8595,VALID,228,VALID,0.258333,
2005-08-15, 01:25:00,VALID,917.364,VALID,0,VALID,95.0461,VALID,0.0339617,VALID,19.8205,VALID,226,VALID,0.117969,
2005-08-15, 01:26:00,VALID,917.348,VALID,0,VALID,95.0499,VALID,0,VALID,19.7723,VALID,226,VALID,0.00436047,
2005-08-15, 01:27:00,VALID,917.333,VALID,0,VALID,95.1236,VALID,-0.0169808,VALID,19.7335,VALID,203,VALID,0.170058,
2005-08-15, 01:28:00,VALID,917.319,VALID,0,VALID,94.1992,VALID,0.0339617,VALID,19.6463,VALID,188,VALID,0.204459,
2005-08-15, 01:29:00,VALID,917.316,VALID,0,VALID,93.1552,VALID,0.0169808,VALID,19.453,VALID,188,VALID,0.393483,
2005-08-15, 01:30:00,VALID,917.323,VALID,0,VALID,93.6918,VALID,0,VALID,19.2233,VALID,72,VALID,0.652071,
2005-08-15, 01:31:00,VALID,917.324,VALID,0,VALID,96.0443,VALID,0.0339617,VALID,19.1368,VALID,349,VALID,0.509673,
2005-08-15, 01:32:00,VALID,917.331,VALID,0,VALID,97.4545,VALID,0.0339617,VALID,19.1297,VALID,313,VALID,0.324574,
2005-08-15, 01:33:00,VALID,917.328,VALID,0,VALID,97.8703,VALID,0.0509425,VALID,19.1237,VALID,309,VALID,0.110863,
2005-08-15, 01:34:00,VALID,917.329,VALID,0,VALID,97.9911,VALID,0.0339617,VALID,19.0879,VALID,309,VALID,0.00228659,
2005-08-15, 01:35:00,VALID,917.321,VALID,0,VALID,98.0992,VALID,0,VALID,19.066,VALID,309,VALID,0,
2005-08-15, 01:36:00,VALID,917.312,VALID,0,VALID,98.2925,VALID,0.0169808,VALID,19.0236,VALID,309,VALID,0,
2005-08-15, 01:37:00,VALID,917.293,VALID,0,VALID,98.6129,VALID,0.0169808,VALID,19.0074,VALID,309,VALID,0,
2005-08-15, 01:38:00,VALID,917.273,VALID,0,VALID,98.8889,VALID,0,VALID,19.0012,VALID,309,VALID,0,
2005-08-15, 01:39:00,VALID,917.269,VALID,0,VALID,99.2004,VALID,-0.0169808,VALID,18.9841,VALID,309,VALID,0.10766,
2005-08-15, 01:40:00,VALID,917.264,VALID,0,VALID,99.4204,VALID,0.0169808,VALID,18.9811,VALID,309,VALID,0.0905107,
2005-08-15, 01:41:00,VALID,917.252,VALID,0,VALID,99.5666,VALID,0,VALID,18.9883,VALID,309,VALID,0.250178,
2005-08-15, 01:42:00,VALID,917.234,VALID,0,VALID,99.9234,VALID,0,VALID,18.9915,VALID,309,VALID,0.0225291,
2005-08-15, 01:43:00,VALID,917.237,VALID,0,VALID,100,VALID,0,VALID,19.0012,VALID,309,VALID,0,
2005-08-15, 01:44:00,VALID,917.217,VALID,0,VALID,100,VALID,-0.0679233,VALID,18.9952,VALID,309,VALID,0,
2005-08-15, 01:45:00,VALID,917.215,VALID,0,VALID,100,VALID,-0.0849042,VALID,19.0059,VALID,309,VALID,0,
2005-08-15, 01:46:00,VALID,917.218,VALID,0,VALID,100,VALID,-0.0679233,VALID,18.9803,VALID,309,VALID,0.149554,
2005-08-15, 01:47:00,VALID,917.224,VALID,0,VALID,99.999,VALID,-0.101885,VALID,18.9637,VALID,330,VALID,0.459028,
2005-08-15, 01:48:00,VALID,917.223,VALID,0,VALID,99.6989,VALID,-0.101885,VALID,18.8735,VALID,45,VALID,0.618118,
2005-08-15, 01:49:00,VALID,917.212,VALID,0,VALID,99.9725,VALID,-0.0509425,VALID,18.8315,VALID,45,VALID,0.523638,
2005-08-15, 01:50:00,VALID,917.209,VALID,0,VALID,100,VALID,-0.0509425,VALID,18.8668,VALID,45,VALID,0.4375,
2005-08-15, 01:51:00,VALID,917.208,VALID,0,VALID,100,VALID,-0.101885,VALID,18.8958,VALID,45,VALID,0.433949,
2005-08-15, 01:52:00,VALID,917.203,VALID,0,VALID,100,VALID,-0.101885,VALID,18.8447,VALID,45,VALID,0.275868,
2005-08-15, 01:53:00,VALID,917.201,VALID,0,VALID,100,VALID,-0.0849042,VALID,18.7833,VALID,45,VALID,0.200521,
2005-08-15, 01:54:00,VALID,917.201,VALID,0,VALID,100,VALID,-0.0849042,VALID,18.7349,VALID,45,VALID,0.0478277,
2005-08-15, 01:55:00,VALID,917.199,VALID,0,VALID,100,VALID,-0.101885,VALID,18.6994,VALID,45,VALID,0.143576,
2005-08-15, 01:56:00,VALID,917.196,VALID,0,VALID,100,VALID,-0.101885,VALID,18.6738,VALID,45,VALID,0.34811,
2005-08-15, 01:57:00,VALID,917.2,VALID,0,VALID,99.587,VALID,-0.0849042,VALID,18.5476,VALID,45,VALID,0.478906,
2005-08-15, 01:58:00,VALID,917.187,VALID,0,VALID,98.5137,VALID,-0.101885,VALID,18.3244,VALID,45,VALID,0.628534,
2005-08-15, 01:59:00,VALID,917.193,VALID,0,VALID,98.9614,VALID,0.0339617,VALID,18.233,VALID,45,VALID,0.68641,
2005-08-15, 02:00:00,VALID,917.159,VALID,0,VALID,99.9303,VALID,0.0679233,VALID,18.3029,VALID,47,VALID,0.710366,
2005-08-15, 02:01:00,VALID,917.156,VALID,0,VALID,100,VALID,0.0849042,VALID,18.4996,VALID,65,VALID,0.72619,
2005-08-15, 02:02:00,VALID,917.143,VALID,0,VALID,100,VALID,0.0849042,VALID,18.5872,VALID,76,VALID,0.385045,
2005-08-15, 02:03:00,VALID,917.141,VALID,0,VALID,100,VALID,0.0679233,VALID,18.5522,VALID,91,VALID,0.43418,
2005-08-15, 02:04:00,VALID,917.132,VALID,0,VALID,100,VALID,0.0679233,VALID,18.5038,VALID,103,VALID,0.697359,
2005-08-15, 02:05:00,VALID,917.136,VALID,0,VALID,100,VALID,0.0679233,VALID,18.5351,VALID,103,VALID,0.751562,
2005-08-15, 02:06:00,VALID,917.144,VALID,0,VALID,100,VALID,0.0849042,VALID,18.6034,VALID,103,VALID,0.716082,
2005-08-15, 02:07:00,VALID,917.151,VALID,0,VALID,100,VALID,0.0849042,VALID,18.6297,VALID,103,VALID,0.612464,
2005-08-15, 02:08:00,VALID,917.141,VALID,0,VALID,100,VALID,0.0849042,VALID,18.6294,VALID,103,VALID,0.522569,
2005-08-15, 02:09:00,VALID,917.133,VALID,0,VALID,100,VALID,0.0169808,VALID,18.6101,VALID,103,VALID,0.625191,
2005-08-15, 02:10:00,VALID,917.129,VALID,0,VALID,100,VALID,0.0169808,VALID,18.6361,VALID,103,VALID,0.409647,
2005-08-15, 02:11:00,VALID,917.115,VALID,0,VALID,100,VALID,0.0849042,VALID,18.6227,VALID,106,VALID,0.492378,
2005-08-15, 02:12:00,VALID,917.11,VALID,0,VALID,100,VALID,0.0169808,VALID,18.6292,VALID,107,VALID,0.294876,
2005-08-15, 02:13:00,VALID,917.114,VALID,0,VALID,100,VALID,0.0339617,VALID,18.6043,VALID,107,VALID,0.811756,
2005-08-15, 02:14:00,VALID,917.124,VALID,0,VALID,100,VALID,-0.0169808,VALID,18.6045,VALID,107,VALID,0.683416,
2005-08-15, 02:15:00,VALID,917.135,VALID,0,VALID,100,VALID,-0.0679233,VALID,18.6348,VALID,107,VALID,0.33316,
2005-08-15, 02:16:00,VALID,917.156,VALID,0,VALID,100,VALID,-0.0509425,VALID,18.6145,VALID,107,VALID,0.449128,
2005-08-15, 02:17:00,VALID,917.167,VALID,0,VALID,100,VALID,-0.0679233,VALID,18.6147,VALID,111,VALID,0.683594,
2005-08-15, 02:18:00,VALID,917.173,VALID,0,VALID,100,VALID,-0.0849042,VALID,18.6152,VALID,126,VALID,0.824041,
2005-08-15, 02:19:00,VALID,917.171,VALID,0,VALID,100,VALID,-0.0679233,VALID,18.6278,VALID,128,VALID,0.851199,
2005-08-15, 02:20:00,VALID,917.184,VALID,0,VALID,100,VALID,-0.0679233,VALID,18.6274,VALID,132,VALID,0.959766,
2005-08-15, 02:21:00,VALID,917.17,VALID,0,VALID,100,VALID,-0.0509425,VALID,18.644,VALID,133,VALID,0.765262,
2005-08-15, 02:22:00,VALID,917.176,VALID,0,VALID,100,VALID,-0.0679233,VALID,18.6472,VALID,133,VALID,0.482701,
2005-08-15, 02:23:00,VALID,917.163,VALID,0,VALID,100,VALID,-0.0339617,VALID,18.6112,VALID,133,VALID,0.457031,
2005-08-15, 02:24:00,VALID,917.139,VALID,0,VALID,100,VALID,-0.0169808,VALID,18.6122,VALID,133,VALID,0.577324,
2005-08-15, 02:25:00,VALID,917.118,VALID,0,VALID,100,VALID,-0.0509425,VALID,18.5856,VALID,143,VALID,0.553925,
2005-08-15, 02:26:00,VALID,917.107,VALID,0,VALID,100,VALID,-0.0509425,VALID,18.5762,VALID,167,VALID,0.765997,
2005-08-15, 02:27:00,VALID,917.091,VALID,0,VALID,100,VALID,-0.0169808,VALID,18.5829,VALID,164,VALID,0.784647,
2005-08-15, 02:28:00,VALID,917.074,VALID,0,VALID,100,VALID,-0.0679233,VALID,18.5732,VALID,147,VALID,0.604725,
2005-08-15, 02:29:00,VALID,917.073,VALID,0,VALID,100,VALID,-0.0679233,VALID,18.528,VALID,128,VALID,0.560023,
2005-08-15, 02:30:00,VALID,917.069,VALID,0,VALID,100,VALID,-0.0679233,VALID,18.4796,VALID,111,VALID,0.829013,
2005-08-15, 02:31:00,VALID,917.051,VALID,0,VALID,100,VALID,-0.0679233,VALID,18.4378,VALID,108,VALID,1.05227,
2005-08-15, 02:32:00,VALID,917.024,VALID,0,VALID,100,VALID,-0.0679233,VALID,18.4088,VALID,123,VALID,0.647711,
2005-08-15, 02:33:00,VALID,917.002,VALID,0,VALID,100,VALID,-0.101885,VALID,18.376,VALID,139,VALID,0.819531,
2005-08-15, 02:34:00,VALID,916.98,VALID,0,VALID,100,VALID,-0.0849042,VALID,18.337,VALID,137,VALID,0.834121,
2005-08-15, 02:35:00,VALID,916.961,VALID,0,VALID,100,VALID,-0.0509425,VALID,18.331,VALID,146,VALID,0.898828,
2005-08-15, 02:36:00,VALID,916.924,VALID,0,VALID,100,VALID,-0.0849042,VALID,18.3375,VALID,146,VALID,0.713942,
2005-08-15, 02:37:00,VALID,916.907,VALID,0,VALID,100,VALID,-0.0509425,VALID,18.3467,VALID,146,VALID,0.75651,
2005-08-15, 02:38:00,VALID,916.898,VALID,0,VALID,100,VALID,-0.0509425,VALID,18.3603,VALID,147,VALID,0.477706,
2005-08-15, 02:39:00,VALID,916.896,VALID,0,VALID,100,VALID,-0.0509425,VALID,18.3442,VALID,129,VALID,0.610564,
2005-08-15, 02:40:00,VALID,916.89,VALID,0,VALID,100,VALID,-0.0849042,VALID,18.325,VALID,121,VALID,0.585007,
2005-08-15, 02:41:00,VALID,916.893,VALID,0,VALID,100,VALID,-0.101885,VALID,18.3117,VALID,103,VALID,0.811384,
2005-08-15, 02:42:00,VALID,916.887,VALID,0,VALID,100,VALID,-0.0679233,VALID,18.3347,VALID,103,VALID,0.574479,
2005-08-15, 02:43:00,VALID,916.881,VALID,0,VALID,100,VALID,-0.0849042,VALID,18.3472,VALID,105,VALID,0.659201,
2005-08-15, 02:44:00,VALID,916.86,VALID,0,VALID,100,VALID,-0.0339617,VALID,18.3599,VALID,105,VALID,0.78343,
2005-08-15, 02:45:00,VALID,916.84,VALID,0,VALID,100,VALID,-0.0169808,VALID,18.37,VALID,107,VALID,0.995722,
2005-08-15, 02:46:00,VALID,916.823,VALID,0,VALID,100,VALID,-0.0169808,VALID,18.3596,VALID,115,VALID,0.582317,
2005-08-15, 02:47:00,VALID,916.792,VALID,0,VALID,100,VALID,-0.0169808,VALID,18.3666,VALID,119,VALID,0.871271,
2005-08-15, 02:48:00,VALID,916.772,VALID,0,VALID,100,VALID,-0.0169808,VALID,18.3827,VALID,130,VALID,0.801491,
2005-08-15, 02:49:00,VALID,916.761,VALID,0,VALID,100,VALID,-0.0509425,VALID,18.3827,VALID,132,VALID,0.710547,
2005-08-15, 02:50:00,VALID,916.76,VALID,0,VALID,100,VALID,-0.0169808,VALID,18.3991,VALID,106,VALID,0.533346,
2005-08-15, 02:51:00,VALID,916.762,VALID,0,VALID,100,VALID,-0.0169808,VALID,18.3762,VALID,111,VALID,0.639946,
2005-08-15, 02:52:00,VALID,916.77,VALID,0,VALID,100,VALID,-0.0339617,VALID,18.3896,VALID,118,VALID,0.582317,
2005-08-15, 02:53:00,VALID,916.784,VALID,0,VALID,100,VALID,0,VALID,18.3795,VALID,108,VALID,0.830357,
2005-08-15, 02:54:00,VALID,916.777,VALID,0,VALID,100,VALID,-0.0169808,VALID,18.3631,VALID,107,VALID,0.908346,
2005-08-15, 02:55:00,VALID,916.78,VALID,0,VALID,100,VALID,0,VALID,18.3666,VALID,106,VALID,1.07867,
2005-08-15, 02:56:00,VALID,916.762,VALID,0,VALID,100,VALID,0,VALID,18.3919,VALID,110,VALID,1.03354,
2005-08-15, 02:57:00,VALID,916.744,VALID,0,VALID,100,VALID,-0.0169808,VALID,18.4023,VALID,111,VALID,0.943788,
2005-08-15, 02:58:00,VALID,916.728,VALID,0,VALID,100,VALID,0,VALID,18.3926,VALID,106,VALID,0.83689,
2005-08-15, 02:59:00,VALID,916.704,VALID,0,VALID,100,VALID,0,VALID,18.3666,VALID,104,VALID,0.918146,
2005-08-15, 03:00:00,VALID,916.678,VALID,0,VALID,100,VALID,0,VALID,18.3569,VALID,114,VALID,0.865625,
2005-08-15, 03:01:00,VALID,916.659,VALID,0,VALID,100,VALID,0.0169808,VALID,18.3373,VALID,106,VALID,0.707122,
2005-08-15, 03:02:00,VALID,916.635,VALID,0,VALID,100,VALID,0,VALID,18.3144,VALID,113,VALID,0.754542,
2005-08-15, 03:03:00,VALID,916.614,VALID,0,VALID,100,VALID,0,VALID,18.3179,VALID,128,VALID,0.812318,
2005-08-15, 03:04:00,VALID,916.595,VALID,0,VALID,100,VALID,0,VALID,18.3502,VALID,131,VALID,0.734557,
2005-08-15, 03:05:00,VALID,916.581,VALID,0,VALID,100,VALID,0.0169808,VALID,18.3564,VALID,128,VALID,0.580256,
2005-08-15, 03:06:00,VALID,916.568,VALID,0,VALID,100,VALID,0.0339617,VALID,18.3529,VALID,128,VALID,0.50558,
2005-08-15, 03:07:00,VALID,916.559,VALID,0,VALID,100,VALID,0,VALID,18.337,VALID,120,VALID,0.769271,
2005-08-15, 03:08:00,VALID,916.552,VALID,0,VALID,100,VALID,0,VALID,18.3338,VALID,105,VALID,0.747275,
2005-08-15, 03:09:00,VALID,916.53,VALID,0,VALID,100,VALID,0,VALID,18.3405,VALID,115,VALID,0.740473,
2005-08-15, 03:10:00,VALID,916.527,VALID,0,VALID,100,VALID,0,VALID,18.337,VALID,119,VALID,0.690505,
2005-08-15, 03:11:00,VALID,916.526,VALID,0,VALID,100,VALID,0.0679233,VALID,18.3172,VALID,119,VALID,0.921303,
2005-08-15, 03:12:00,VALID,916.521,VALID,0,VALID,100,VALID,0,VALID,18.3306,VALID,119,VALID,0.851918,
2005-08-15, 03:13:00,VALID,916.509,VALID,0,VALID,100,VALID,0,VALID,18.3599,VALID,121,VALID,0.797374,
2005-08-15, 03:14:00,VALID,916.524,VALID,0,VALID,100,VALID,0.0169808,VALID,18.3829,VALID,121,VALID,0.560023,
2005-08-15, 03:15:00,VALID,916.513,VALID,0,VALID,100,VALID,0,VALID,18.373,VALID,105,VALID,1.02004,
2005-08-15, 03:16:00,VALID,916.529,VALID,0,VALID,100,VALID,0.0169808,VALID,18.3661,VALID,107,VALID,1.11047,
2005-08-15, 03:17:00,VALID,916.517,VALID,0,VALID,100,VALID,0,VALID,18.3633,VALID,102,VALID,0.960565,
2005-08-15, 03:18:00,VALID,916.517,VALID,0,VALID,100,VALID,0.0339617,VALID,18.3631,VALID,107,VALID,1.05859,
2005-08-15, 03:19:00,VALID,916.515,VALID,0,VALID,100,VALID,0,VALID,18.3599,VALID,106,VALID,1.11756,
2005-08-15, 03:20:00,VALID,916.519,VALID,0,VALID,100,VALID,0.0169808,VALID,18.3534,VALID,118,VALID,1.09446,
2005-08-15, 03:21:00,VALID,916.519,VALID,0,VALID,100,VALID,0,VALID,18.3366,VALID,111,VALID,1.00508,
2005-08-15, 03:22:00,VALID,916.52,VALID,0,VALID,100,VALID,0.0169808,VALID,18.334,VALID,110,VALID,0.957667,
2005-08-15, 03:23:00,VALID,916.517,VALID,0,VALID,100,VALID,0.0169808,VALID,18.3276,VALID,113,VALID,1.18594,
2005-08-15, 03:24:00,VALID,916.5,VALID,0,VALID,100,VALID,0.0169808,VALID,18.338,VALID,119,VALID,0.868676,
2005-08-15, 03:25:00,VALID,916.49,VALID,0,VALID,100,VALID,0,VALID,18.3375,VALID,134,VALID,0.974382,
2005-08-15, 03:26:00,VALID,916.473,VALID,0,VALID,100,VALID,0.0169808,VALID,18.344,VALID,117,VALID,0.988636,
2005-08-15, 03:27:00,VALID,916.461,VALID,0,VALID,100,VALID,-0.0169808,VALID,18.3511,VALID,106,VALID,1.05246,
2005-08-15, 03:28:00,VALID,916.441,VALID,0,VALID,100,VALID,-0.0169808,VALID,18.325,VALID,132,VALID,0.589177,
2005-08-15, 03:29:00,VALID,916.421,VALID,0,VALID,100,VALID,-0.0679233,VALID,18.3156,VALID,132,VALID,0.753516,
2005-08-15, 03:30:00,VALID,916.402,VALID,0,VALID,100,VALID,-0.101885,VALID,18.329,VALID,119,VALID,0.775977,
2005-08-15, 03:31:01,VALID,916.407,VALID,0,VALID,100,VALID,-0.101885,VALID,18.352,VALID,108,VALID,0.874619,
2005-08-15, 03:32:01,VALID,916.38,VALID,0,VALID,100,VALID,-0.101885,VALID,18.3419,VALID,127,VALID,0.988009,
2005-08-15, 03:33:00,VALID,916.377,VALID,0,VALID,100,VALID,-0.101885,VALID,18.355,VALID,119,VALID,0.772727,
2005-08-15, 03:34:00,VALID,916.374,VALID,0,VALID,100,VALID,-0.101885,VALID,18.355,VALID,129,VALID,1.12252,
2005-08-15, 03:35:00,VALID,916.359,VALID,0,VALID,100,VALID,-0.101885,VALID,18.3677,VALID,113,VALID,0.846554,